Location: Narrabri
(30.3170°S, 149.7830°E)
Time: 23:20:11
(UTC+10:00)

Tiangong 1 - Visible Passes

Search period start: 24 April 2017 00:00
Search period end: 04 May 2017 00:00
Orbit: 329 x 353 km, 42.8° (Epoch: 22 April)

Date Brightness Start Highest point End Pass type
(mag) Time Alt. Az. Time Alt. Az. Time Alt. Az.
24 Apr 1.4 18:44:25 10° WSW 18:47:19 56° NW 18:48:18 34° NNE visible
25 Apr 3.6 19:07:28 10° W 19:09:18 15° NW 19:10:19 13° NNW visible
26 Apr 1.8 17:52:58 10° WSW 17:55:51 50° NW 17:58:42 10° NE visible
27 Apr 4.0 18:16:02 10° WNW 18:17:41 14° NW 18:19:18 10° N visible
